EDT,Max TemperatureF,Mean TemperatureF,Min TemperatureF,Max Dew PointF,MeanDew PointF,Min DewpointF,Max Humidity, Mean Humidity, Min Humidity, Max Sea Level PressureIn, Mean Sea Level PressureIn, Min Sea Level PressureIn, Max VisibilityMiles, Mean VisibilityMiles, Min VisibilityMiles, Max Wind SpeedMPH, Mean Wind SpeedMPH, Max Gust SpeedMPH,PrecipitationIn, CloudCover, Events, WindDirDegrees
2012-6-1,69,60,51,63,58,48,100,90,64,29.94,29.84,29.78,10,9,1,15,8,24,1.00,7,Rain-Thunderstorm,224
2012-6-2,64,55,46,50,46,43,100,74,48,30.00,29.96,29.91,10,10,7,13,4,17,0.00,5,,291
2012-6-3,73,60,48,59,52,45,88,72,53,30.03,29.98,29.94,10,10,10,13,6,21,0.00,4,Rain,247
2012-6-4,73,65,57,59,55,52,88,74,53,29.95,29.89,29.85,10,10,10,14,4,25,0.00,4,Rain,279
2012-6-5,69,60,51,57,53,48,100,77,49,29.95,29.90,29.85,10,9,0,9,3,,0.00,5,Fog,5
2012-6-6,71,61,51,57,54,50,100,81,56,30.08,29.99,29.92,10,10,10,9,3,,0.00,6,Rain,23
2012-6-7,73,62,51,57,52,50,100,71,44,30.15,30.12,30.08,10,10,3,9,3,,0.00,3,,15
2012-6-8,78,66,53,54,51,48,88,59,36,30.19,30.15,30.10,10,10,7,10,3,,0.00,1,,12
2012-6-9,82,68,55,59,54,46,77,58,39,30.18,30.14,30.10,10,10,10,7,1,,0.00,1,,239
2012-6-10,78,70,62,61,58,54,88,66,47,30.19,30.16,30.12,10,10,10,12,5,,0.00,2,Rain,168
2012-6-11,78,71,64,68,64,61,100,84,65,30.15,30.11,30.05,10,10,7,10,5,,0.00,6,Rain,181
2012-6-12,82,72,62,68,66,63,100,84,54,30.09,30.05,30.02,10,10,1,12,5,16,0.11,4,Rain-Thunderstorm,269
2012-6-13,78,69,60,66,58,52,94,70,39,30.16,30.11,30.08,10,10,10,12,5,17,0.00,1,,358
2012-6-14,82,68,55,61,58,54,100,67,45,30.21,30.16,30.12,10,10,10,8,2,,0.00,2,,79
2012-6-15,82,71,60,63,59,55,83,67,51,30.29,30.24,30.18,10,10,10,10,6,,0.00,2,,144
2012-6-16,80,70,60,64,59,55,100,71,51,30.34,30.27,30.21,10,10,10,9,5,,0.00,3,Thunderstorm,181
2012-6-17,77,70,62,64,62,59,88,78,57,30.21,30.16,30.10,10,10,10,15,7,21,0.00,2,,201
2012-6-18,84,73,62,64,62,59,100,71,45,30.19,30.13,30.09,10,10,10,15,7,20,0.00,2,,222
2012-6-19,86,74,62,63,60,57,88,62,42,30.29,30.25,30.20,10,10,7,9,3,,0.00,2,,230
2012-6-20,89,76,64,66,63,61,94,70,40,30.31,30.26,30.21,10,10,7,10,2,,0.00,2,Rain-Thunderstorm,206
2012-6-21,87,76,64,66,64,61,100,68,43,30.21,30.15,30.05,10,10,10,9,3,,0.00,3,Rain-Thunderstorm,243
2012-6-22,82,73,64,70,67,63,100,86,54,30.10,30.05,29.99,10,9,2,15,3,22,0.65,6,Rain-Thunderstorm,191
2012-6-23,82,72,62,68,59,50,100,66,34,30.14,30.09,30.04,10,8,0,10,2,17,0.00,1,Fog-Thunderstorm,26
2012-6-24,87,74,62,64,56,50,78,53,29,30.14,30.09,30.03,10,10,5,8,2,,0.00,0,,327
2012-6-25,82,73,64,63,60,52,83,62,45,30.03,29.97,29.91,10,10,10,14,3,17,0.00,2,,340
2012-6-26,75,63,51,52,47,45,77,56,34,30.04,30.00,29.96,10,10,10,13,7,18,0.00,0,,16
2012-6-27,82,68,55,52,48,45,72,50,30,30.15,30.09,30.02,10,10,10,10,3,16,0.00,0,,16
2012-6-28,91,75,59,61,55,50,77,51,33,30.15,30.10,30.06,10,10,10,14,5,16,0.00,0,,227
2012-6-29,98,84,71,63,59,54,73,45,25,30.10,30.07,29.98,10,10,7,22,7,43,0.00,0,,262
2012-6-30,96,82,68,68,64,63,83,56,32,30.06,30.03,29.99,10,10,10,15,5,17,0.00,1,Thunderstorm,227